Lexington Weather

Lexington, Massachusetts, USA

76°F
9/22/2021 12:37pm 
  • Lexington Conditions: Overcast
  • Temperature: 75.6°F / 24.2°CWarmer 0.8°F than last hour.
  • Dew Point: 68.5°F 
  • Relative Humidity: 79%Decreased 2.0% since last hour.
  • Wind: Wind from SSW SSW 2 mph, 10-min avg: 3 mph, gust: 11 mph
  • Barometer: 30.11 inFalling 0.03  inHg/hr Falling Slowly
  • Visibility: 10 miles
  • Rain Today: 0.00 in
  •   

Regional Weather Roundup
for Boston / Norton, MA

        
000
ASUS41 KBOX 212004
RWRBOX

REGIONAL WEATHER ROUNDUP
NATIONAL WEATHER SERVICE BOSTON/NORTON MA
400 PM EDT TUE SEP 21 2021

NOTE:  "FAIR" INDICATES FEW OR NO CLOUDS BELOW 12,000 FEET WITH NO 
SIGNIFICANT WEATHER AND/OR OBSTRUCTIONS TO VISIBILITY.

MAZALL-212100-
EASTERN MASSACHUSETTS
  
CITY           SKY/WX    TMP DP  RH WIND       PRES   REMARKS
BOSTON         MOSUNNY   72  63  73 E12       30.34F                  
BEVERLY        SUNNY     71  63  75 SE12      30.34F                  
LAWRENCE       PTSUNNY   72  61  68 E5        30.36F                  
BEDFORD        PTSUNNY   74  62  66 SE9       30.33F                  
BLUE HILL      NOT AVBL                                               
NORWOOD        MOSUNNY   76  56  49 SW7       30.33F                  
MARSHFIELD     PTSUNNY   73  64  73 SE8G15    30.34F                  
PLYMOUTH       PTSUNNY   74  60  61 S8        30.34F                  
TAUNTON        MOSUNNY   77  58  51 SE8       30.33F                  
NEW BEDFORD    PTSUNNY   75  61  61 SE10      30.34F                  
$$

MAZALL-212100-
CAPE COD AND THE ISLANDS
  
CITY           SKY/WX    TMP DP  RH WIND       PRES   REMARKS
FALMOUTH       PTSUNNY   73  64  73 SE9       30.35F                  
HYANNIS        CLOUDY    71  65  81 SE6       30.34F                  
CHATHAM        PTSUNNY   70  62  76 SE9       30.37F                  
PROVINCETOWN   PTSUNNY   73  64  73 SE9       30.36F                  
NANTUCKET      MOSUNNY   74  65  73 SE14      30.35F                  
MARTHAS VNYRD  PTSUNNY   74  65  73 SE12      30.35F                  
$$
 
MAZALL-212100-
CENTRAL AND WESTERN MASSACHUSETTS
  
CITY           SKY/WX    TMP DP  RH WIND       PRES   REMARKS
WORCESTER      PTSUNNY   70  58  65 S8        30.36F                  
FITCHBURG      MOSUNNY   74  55  51 S7        30.34F                  
ORANGE         MOSUNNY   73  57  57 S9        30.35F                  
SPRINGFIELD    PTSUNNY   76  58  53 SW8       30.31F                  
WESTFIELD      SUNNY     74  60  61 S8        30.32F                  
NORTH ADAMS    NOT AVBL                                               
PITTSFIELD     MOSUNNY   70  54  56 VRB7      30.32F                  
$$
 
RIZALL-212100-
RHODE ISLAND
  
CITY           SKY/WX    TMP DP  RH WIND       PRES   REMARKS
PROVIDENCE     MOSUNNY   76  57  51 S9        30.34F                  
NEWPORT        SUNNY     72  59  63 SE9       30.34F                  
BLOCK ISLAND   PTSUNNY   69  62  78 E8        30.34F                  
SMITHFIELD     MOSUNNY   73  59  61 CALM      30.35F                  
WESTERLY       MOSUNNY   70  59  68 SE10      30.34F                  
$$
 
CTZALL-212100-
CONNECTICUT
  
CITY           SKY/WX    TMP DP  RH WIND       PRES   REMARKS
BRADLEY INTL   PTSUNNY   74  60  61 S8        30.32F                  
HARTFORD       PTSUNNY   75  61  61 S8        30.32F                  
BRIDGEPORT     PTSUNNY   74  66  76 E13       30.31F                  
DANBURY        PTSUNNY   73  62  68 SE5       30.33F                  
GROTON         CLOUDY    71  64  78 E9        30.33F                  
NEW HAVEN      MOSUNNY   77  67  71 SE9       30.32F                  
CHESTER        PTSUNNY   73  63  68 NE8       30.34F                  
MERIDEN        CLOUDY    73  61  65 SE6       30.32F                  
WILLIMANTIC    CLOUDY    73  59  61 S9        30.33F                  
OXFORD         PTSUNNY   71  62  73 SE9       30.34F                  
$$

MEZ002-015-021-024-NHZ003-005-008-011-012-014-VTZ005-008-212100-
NORTHERN NEW ENGLAND
  
CITY           SKY/WX    TMP DP  RH WIND       PRES   REMARKS
PORTLAND ME    CLOUDY    66  61  84 SE12      30.37F                  
BANGOR ME      MOSUNNY   69  57  65 S17       30.37F                  
CONCORD NH     SUNNY     71  55  56 S10       30.34F                  
MANCHESTER NH  MOSUNNY   75  56  51 S9        30.32F                  
NASHUA NH      PTSUNNY   74  61  63 CALM      30.34F                  
PORTSMOUTH NH  MOSUNNY   70  59  68 SE12      30.35F                  
JAFFREY NH     MOSUNNY   71  57  61 S9        30.36F                  
KEENE NH       MOSUNNY   71  56  58 S10       30.33F                  
BURLINGTON VT  PTSUNNY   74  53  48 SW12      30.22F                  
MT. WASHINGTON MOSUNNY   52  19  28 SW21G33     N/A                   
$$

NYZ052-076-212100-
EASTERN NEW YORK
  
CITY           SKY/WX    TMP DP  RH WIND       PRES   REMARKS
ALBANY         PTSUNNY   70  54  56 S18G28    30.29F                  
NEW YORK CITY  PTSUNNY   74  64  71 NE14      30.29F                  
$$
 
ANZALL-212100-
MARINE OBSERVATIONS
  
STATION/POSITION TIME  TEMP    WIND        PRES    VSBY  WAVE
                       AIR SEA DIR/SP/G                  HT/PER
                 (UTC) (F)     (DEG/KT/KT) (MB)    (MI)  (FT/S)
BOSTON BUOY      1940      66  110/ 10/ 10 1028.0F
BUZZARDS BAY     1900          110/  4/  5 1029.1F
NANTUCKET SOUND  1940   71 72  120/  8/ 10 1027.7F
MASS BAY-STELLWA 1904   66     130/ 10/ 12 1028.1F  1 3/4  4/11
ISLE OF SHOALS   1900   65     120/ 10/ 10 1028.1F
S OF BLOCK IS    1926      71                N/A           3/11
$$

......................KEY.........................
  SKY/WX - SKY CONDITION/PRESENT WEATHER
  TMP    - TEMPERATURE IN FAHRENHEIT
  DWPT   - DEWPOINT IN FAHRENHEIT
  RH     - RELATIVE HUMIDITY IN PERCENT
  WIND   - DIRECTION AND SPEED IN MPH
  PRES   - MEAN SEA LEVEL PRESSURE IN INCHES OF HG
  WCI    - WIND CHILL INDEX
  VSB    - VISIBILITY IN MILES
  HX     - HEAT INDEX
  TC     - TEMPERATURE IN CELSIUS
  VRB    - VARIABLE WIND DIRECTION
  N/A    - NOT AVAILABLE
  
      

Other recent Regional Weather Roundups

Wed Sep 22, 12:05pm

Wed Sep 22, 11:04am

Wed Sep 22, 10:04am

Wed Sep 22, 9:04am

Wed Sep 22, 8:04am

Wed Sep 22, 7:04am

Wed Sep 22, 6:04am

Wed Sep 22, 5:04am

Wed Sep 22, 4:04am

Wed Sep 22, 3:04am

Wed Sep 22, 2:04am

Wed Sep 22, 1:04am

Wed Sep 22, 12:04am

Tue Sep 21, 11:04pm

Tue Sep 21, 10:04pm

Tue Sep 21, 9:04pm

Tue Sep 21, 8:04pm

Tue Sep 21, 7:04pm

Tue Sep 21, 6:04pm

Tue Sep 21, 5:04pm

Tue Sep 21, 3:04pm

Tue Sep 21, 2:04pm

Tue Sep 21, 1:04pm

Tue Sep 21, 12:04pm

Tue Sep 21, 11:04am

Tue Sep 21, 10:04am

Tue Sep 21, 9:04am

Tue Sep 21, 8:04am

Tue Sep 21, 7:04am

Tue Sep 21, 6:04am

Tue Sep 21, 5:04am

Tue Sep 21, 4:04am

Tue Sep 21, 3:04am

Tue Sep 21, 2:04am

Tue Sep 21, 1:04am

Tue Sep 21, 12:04am

Mon Sep 20, 11:04pm

Mon Sep 20, 10:04pm

Mon Sep 20, 9:04pm

Mon Sep 20, 8:04pm

Mon Sep 20, 7:04pm

Mon Sep 20, 6:04pm

Mon Sep 20, 5:04pm

Mon Sep 20, 4:04pm

Mon Sep 20, 3:04pm

Mon Sep 20, 2:04pm

Mon Sep 20, 1:04pm

Mon Sep 20, 12:04pm

Mon Sep 20, 11:04am

Mon Sep 20, 10:04am

Mon Sep 20, 9:04am

Mon Sep 20, 7:04am

Mon Sep 20, 6:04am

Mon Sep 20, 5:04am

Mon Sep 20, 4:04am

Mon Sep 20, 3:04am

Mon Sep 20, 2:04am

Mon Sep 20, 1:04am

Mon Sep 20, 12:04am

Sun Sep 19, 11:04pm

Sun Sep 19, 10:04pm

Sun Sep 19, 9:04pm

Sun Sep 19, 8:04pm

Sun Sep 19, 7:04pm

Sun Sep 19, 6:04pm

Sun Sep 19, 5:04pm

Sun Sep 19, 4:04pm

Sun Sep 19, 3:04pm

Sun Sep 19, 2:05pm

Sun Sep 19, 1:04pm

Sun Sep 19, 12:04pm

Sun Sep 19, 11:04am

Sun Sep 19, 10:05am

Sun Sep 19, 9:04am

Sun Sep 19, 8:04am

Sun Sep 19, 7:04am

Sun Sep 19, 6:04am

Sun Sep 19, 5:04am

Sun Sep 19, 4:04am

Sun Sep 19, 3:04am

Sun Sep 19, 2:04am

Sun Sep 19, 1:04am

Sun Sep 19, 12:04am

Sat Sep 18, 11:05pm

Sat Sep 18, 10:04pm

Sat Sep 18, 9:04pm

Sat Sep 18, 8:04pm

Sat Sep 18, 7:04pm

Sat Sep 18, 6:04pm

Sat Sep 18, 5:04pm

Sat Sep 18, 4:04pm

Sat Sep 18, 3:04pm

Sat Sep 18, 2:04pm

Sat Sep 18, 1:04pm

Sat Sep 18, 12:04pm

Sat Sep 18, 11:04am

Sat Sep 18, 10:04am

Sat Sep 18, 9:04am

Sat Sep 18, 8:04am

Sat Sep 18, 7:04am

Sat Sep 18, 6:04am

Sat Sep 18, 5:04am

Sat Sep 18, 4:04am

Sat Sep 18, 3:04am

Sat Sep 18, 2:04am

Sat Sep 18, 1:04am

Sat Sep 18, 12:04am

Fri Sep 17, 11:04pm

Fri Sep 17, 10:04pm

Fri Sep 17, 9:04pm

Fri Sep 17, 8:04pm

Fri Sep 17, 7:04pm

Fri Sep 17, 6:04pm

Fri Sep 17, 5:04pm

Fri Sep 17, 4:04pm

Fri Sep 17, 3:04pm

Fri Sep 17, 2:04pm

Fri Sep 17, 1:04pm

Fri Sep 17, 12:05pm

Fri Sep 17, 11:04am

Fri Sep 17, 10:04am

Fri Sep 17, 9:04am

Fri Sep 17, 8:04am

Fri Sep 17, 7:04am

Fri Sep 17, 6:04am

Fri Sep 17, 5:04am

Fri Sep 17, 4:04am

Fri Sep 17, 3:04am

Fri Sep 17, 2:04am

Fri Sep 17, 1:04am

Fri Sep 17, 12:04am

Thu Sep 16, 11:04pm

Thu Sep 16, 10:04pm

Thu Sep 16, 9:04pm

Thu Sep 16, 8:04pm

Thu Sep 16, 7:04pm

Thu Sep 16, 6:04pm

Thu Sep 16, 5:04pm

Thu Sep 16, 4:04pm

Thu Sep 16, 3:04pm

Thu Sep 16, 2:04pm

Thu Sep 16, 1:05pm

Thu Sep 16, 12:04pm

Thu Sep 16, 11:05am

Thu Sep 16, 10:05am

Thu Sep 16, 9:04am

Thu Sep 16, 8:04am

Thu Sep 16, 7:04am

Thu Sep 16, 6:04am

Thu Sep 16, 5:04am

Thu Sep 16, 4:04am

Thu Sep 16, 3:04am

Thu Sep 16, 2:04am

Thu Sep 16, 1:04am

Thu Sep 16, 12:04am

Wed Sep 15, 11:04pm

Wed Sep 15, 10:04pm

Wed Sep 15, 9:04pm

Wed Sep 15, 8:04pm

Wed Sep 15, 7:04pm

Wed Sep 15, 6:04pm

Wed Sep 15, 5:05pm

Wed Sep 15, 4:04pm

Wed Sep 15, 3:04pm

Wed Sep 15, 2:04pm

Wed Sep 15, 1:04pm

Meta data:

ID: ab1867f6-4b9e-4d69-91a6-fd6aad720090
Link: https://api.weather.gov/products/ab1867f6-4b9e-4d69-91a6-fd6aad720090